sat.trackr.live / text

‹ back to catalog

STARLINK-34372

NORAD 64301 · 2025-123L

PAYLOAD ACTIVE UNKNOWN

§ Identity

Operator
Country
US
Launch date
2025-06-08
Launch site
AFWTR
Launch vehicle
Mass (kg)
RCS (m²)

Purposes: comms

External: N2YO · Heavens-Above · Gunter

§ Orbital elements

Epoch: 2026-09-20T22:00:03.000096Z

Period
94.14 min
Inclination
70.0000°
Eccentricity
0.0003304
Mean motion
15.29569228 rev/d
Perigee alt
474.8 km
Apogee alt
479.4 km
Semi-major
6,855.2 km
B*
9.4078e-4
RAAN
59.8334°
Arg perigee
276.3011°
Mean anomaly
10.5855°
Rev number
542

§ Raw data

STARLINK-343721 64301U 25123L   26263.91670139  .00027005  00000+0  94078-3 0  99962 64301  70.0000  59.8334 0003304 276.3011  10.5855 15.29569228  5429

JSON: /api/v1/satellites/64301 · /tle

For live sub-satellite position, see the globe view (requires WebGL).

§ Visibility from observer

Set your observer location to see the next 7 days of passes ≥ 10°. The values pass through the URL so the page stays shareable.

No JS? Fill the form by hand. The geolocation button needs JavaScript.